Tracking 25963 objects as of 12-Aug-2022
HD Live streaming from Space Station
objects crossing your sky now

STARLINK-3080

Track STARLINK-3080 now!
10-day predictions
STARLINK-3080 is classified as:


NORAD ID: 49161
Int'l Code: 2021-082AH
Perigee: 577.2 km
Apogee: 581.2 km
Inclination: 70.0 °
Period: 96.1 minutes
Semi major axis: 6950 km
RCS: Unknown
Launch date: September 14, 2021
Source: United States (US)
Launch site: AIR FORCE WESTERN TEST RANGE (AFWTR)
aabbcc
Your satellite tracking list
Your tracking list is empty




NASA's NSSDC Master Catalog

Two Line Element Set (TLE):
1 49161U 21082AH  22223.79175577  .00001934  00000-0  16987-3 0  9994
2 49161  70.0006 347.0774 0002913 249.4955 110.5892 14.98330682 51445
Source of the keplerian elements: AFSPC